Waarnemingen

Advertentie
Mijn weer
Biscarosse, Frankrijk (7503): temperatuur & dauwpunt: 18.01.2018 12:00:00 - 24.01.2018 12:00:00 (CET)Biscarosse, Frankrijk (7503): temperatuur 5cm: 18.01.2018 12:00:00 - 24.01.2018 12:00:00 (CET)Biscarosse, Frankrijk (7503): temperatuur -20cm & temperatuur -100cm: 18.01.2018 12:00:00 - 24.01.2018 12:00:00 (CET)Biscarosse, Frankrijk (7503): windsnelheid & windstoten: 18.01.2018 12:00:00 - 24.01.2018 12:00:00 (CET)Biscarosse, Frankrijk (7503): windrichting: 18.01.2018 12:00:00 - 24.01.2018 12:00:00 (CET)Biscarosse, Frankrijk (7503): luchtdruk: 18.01.2018 12:00:00 - 24.01.2018 12:00:00 (CET)Biscarosse, Frankrijk (7503): zicht: 18.01.2018 12:00:00 - 24.01.2018 12:00:00 (CET)Biscarosse, Frankrijk (7503): Zonneschijnduur: 18.01.2018 12:00:00 - 24.01.2018 12:00:00 (CET)Biscarosse, Frankrijk (7503): neerslag: 18.01.2018 12:00:00 - 24.01.2018 12:00:00 (CET)
Datum & Tijd tt [°C] td [°C] tt 5cm [°C] tt -20cm [°C] tt -100cm [°C] ff [km/u] ff [kn] fx [km/u] fx [kn] dd ppp [hPa] vv [km] sd [min] rr [mm]
24.01.2018 12:00:00 13,2 11,4 13,3 10,4 11,8 11 6 22 12 Z 1023,9 20 60 0,0
24.01.2018 11:00:00 10,8 10,5 9,7 10,4 11,8 11 6 23 12 ZO 1024,2 20 60 0,0
24.01.2018 10:00:00 8,9 8,8 8,1 10,4 11,8 9 5 28 15 OZO 1023,9 4,5 5 0,0
24.01.2018 09:00:00 8,2 7,9 7,3 10,6 11,8 11 6 23 12 OZO 1023,6 3,3 0 0,0
24.01.2018 08:00:00 8,0 7,7 7,2 10,8 11,8 10 6 22 12 O 1023,7 16 0 0,0
24.01.2018 07:00:00 8,4 8,0 7,7 10,9 11,8 10 5 21 11 O 1024,2 0,7 0 0,0
24.01.2018 06:00:00 9,6 9,1 8,7 11,1 11,7 10 6 22 12 OZO 1024,7 13 0 0,0
24.01.2018 05:00:00 10,2 9,7 9,1 11,3 11,7 10 6 19 11 OZO 1025,4 20 0 0,0
24.01.2018 04:00:00 10,6 10,3 9,7 11,4 11,7 11 6 22 12 ZO 1026,0 20 0 0,0
24.01.2018 03:00:00 10,8 10,5 9,2 11,6 11,7 12 6 19 10 ZO 1026,8 14 0 0,0
24.01.2018 02:00:00 10,4 9,9 9,4 11,8 11,7 9 5 13 7 OZO 1027,5 19 0 0,0
24.01.2018 01:00:00 10,4 9,9 9,1 12,0 11,7 7 4 11 6 ZO 1028,4 8 0 0,0
24.01.2018 00:00:00 11,3 10,8 10,1 12,1 11,8 4 2 6 4 ZO 1028,9 11 0 0,0
23.01.2018 23:00:00 11,9 11,4 11,4 12,2 11,7 4 2 5 3 ZO 1029,2 9 0 0,0
23.01.2018 22:00:00 12,1 11,6 11,7 12,3 11,7 2 1 8 4 ZO 1029,5 6 0 0,0
23.01.2018 21:00:00 12,3 11,8 12,0 12,3 11,7 3 2 10 5 ZZO 1029,7 2,9 0 0,0
23.01.2018 20:00:00 12,4 11,8 12,1 12,4 11,7 5 3 10 6 Z 1030,0 2,1 0 0,0
23.01.2018 19:00:00 12,6 12,0 12,4 12,4 11,7 8 4 12 6 Z 1029,7 3,3 0 0,0
23.01.2018 18:00:00 12,8 12,2 12,8 12,4 11,7 5 3 12 6 Z 1029,6 6 0 0,0
23.01.2018 17:00:00 13,2 12,4 13,7 12,2 11,7 9 5 14 8 ZZW 1029,6 4,0 0 0,0
23.01.2018 16:00:00 13,7 12,9 15,0 12,0 11,8 11 6 16 8 ZZW 1029,3 8 2 0,0
23.01.2018 15:00:00 13,9 13,3 14,8 11,7 11,7 10 6 13 7 ZZW 1029,1 8 0 0,0
23.01.2018 14:00:00 13,4 12,9 13,9 11,4 11,7 9 5 11 6 ZZW 1029,5 4,8 0 0,0
23.01.2018 13:00:00 13,3 13,0 13,5 11,3 11,7 8 4 11 6 ZW 1029,9 3,5 0 0,0
23.01.2018 12:00:00 13,0 12,7 13,1 11,0 11,7 7 4 15 8 WZW 1030,2 3,8 0 0,0
23.01.2018 11:00:00 12,6 12,4 12,6 10,9 11,7 16 8 21 12 W 1030,0 4,0 0 0,0
23.01.2018 10:00:00 12,4 12,2 12,4 10,7 11,7 18 10 24 13 W 1029,6 2,8 0 0,0
23.01.2018 09:00:00 12,5 12,3 12,3 10,7 11,7 13 7 22 12 W 1028,9 1,0 0 0,0
23.01.2018 08:00:00 12,5 12,3 11,2 10,6 11,7 15 8 20 11 W 1028,4 1,2 0 0,0
23.01.2018 07:00:00 11,3 11,0 10,4 10,6 11,7 7 4 13 7 ZZW 1028,1 0,9 0 0,4
23.01.2018 06:00:00 10,6 10,3 10,0 10,6 11,7 7 4 12 7 ZZO 1028,0 1,2 0 0,0
23.01.2018 05:00:00 10,2 9,9 9,1 10,6 11,7 6 4 10 6 ZZO 1027,9 7 0 0,0
23.01.2018 04:00:00 9,3 9,0 8,1 10,8 11,7 6 4 9 5 ZO 1028,2 13 0 0,0
23.01.2018 03:00:00 9,2 8,9 7,5 10,9 11,7 7 4 11 6 ZO 1028,4 2,7 0 0,0
23.01.2018 02:00:00 10,0 9,5 7,8 11,1 11,7 6 3 9 5 Z 1028,5 0,5 0 0,0
23.01.2018 01:00:00 10,7 10,2 8,7 11,3 11,7 4 2 11 6 Z 1028,7 1,0 0 0,0
23.01.2018 00:00:00 10,6 10,1 8,2 11,5 11,7 10 6 13 7 WZW 1028,7 1,4 0 0,0
22.01.2018 23:00:00 11,4 10,8 9,1 11,6 11,6 9 5 21 11 W 1028,7 1,9 0 0,2
22.01.2018 22:00:00 11,9 11,4 10,6 11,8 11,6 18 10 22 12 W 1028,5 2,9 0 0,0
22.01.2018 21:00:00 11,9 11,3 10,9 11,9 11,7 15 8 22 12 W 1028,3 3,5 0 0,0
22.01.2018 20:00:00 12,1 11,5 11,2 12,1 11,7 17 9 25 14 WNW 1028,2 4,5 0 0,0
22.01.2018 19:00:00 12,3 11,7 11,5 12,1 11,6 21 11 29 16 WNW 1027,8 4,5 0 0,0
22.01.2018 18:00:00 12,4 11,8 11,8 12,2 11,6 24 13 40 21 WNW 1027,0 5 0 0,0
22.01.2018 17:00:00 12,5 12,0 12,2 12,1 11,6 31 17 44 24 WNW 1026,4 5 15 0,0
22.01.2018 16:00:00 12,2 11,6 12,3 12,0 11,6 40 21 56 31 WNW 1025,9 4,8 0 0,2
22.01.2018 15:00:00 12,6 12,1 12,4 12,0 11,6 44 24 62 34 W 1025,3 3,7 0 0,2
22.01.2018 14:00:00 12,5 11,9 12,4 11,9 11,6 45 24 54 29 W 1025,5 4,0 0 0,2
22.01.2018 13:00:00 12,6 11,7 12,2 11,8 11,6 44 24 64 34 W 1025,9 4,9 0 0,0
22.01.2018 12:00:00 12,7 11,6 12,3 11,8 11,6 45 24 65 35 W 1026,3 4,3 0 0,0
22.01.2018 11:00:00 12,7 11,3 12,1 11,7 11,6 44 24 61 33 W 1026,3 8 0 0,0
22.01.2018 10:00:00 13,0 11,6 12,0 11,7 11,6 44 24 58 31 W 1026,2 12 0 0,0
22.01.2018 09:00:00 12,4 11,6 11,8 11,8 11,6 32 18 53 29 W 1026,1 5 0 0,0
22.01.2018 08:00:00 12,7 11,3 11,6 11,8 11,5 36 19 56 30 W 1026,1 7 0 0,0
22.01.2018 07:00:00 12,3 11,0 11,7 11,8 11,5 35 19 51 28 W 1026,3 6 0 0,0
22.01.2018 06:00:00 12,6 11,2 11,7 11,8 11,5 40 22 54 29 W 1026,1 8 0 0,0
22.01.2018 05:00:00 12,7 11,1 11,7 11,8 11,5 37 20 53 29 W 1026,2 13 0 0,0
22.01.2018 04:00:00 12,5 11,7 12,0 11,8 11,5 34 18 47 25 W 1026,4 3,1 0 0,4
22.01.2018 03:00:00 12,8 11,5 11,9 11,8 11,5 26 14 41 22 W 1026,4 7 0 0,0
22.01.2018 02:00:00 12,7 11,4 11,7 11,8 11,5 35 19 57 31 W 1026,7 11 0 0,0
22.01.2018 01:00:00 12,5 11,7 11,8 11,8 11,5 33 18 43 23 W 1026,8 10 0 0,0
22.01.2018 00:00:00 12,5 11,9 11,9 11,9 11,4 30 16 43 23 W 1027,0 6 0 0,0
21.01.2018 23:00:00 12,4 11,8 11,9 11,9 11,5 36 19 46 25 W 1027,0 7 0 0,0
21.01.2018 22:00:00 12,4 11,8 11,8 11,9 11,4 37 20 53 29 W 1027,3 3,7 0 0,0
21.01.2018 21:00:00 12,6 12,0 12,0 11,9 11,4 39 21 51 28 W 1027,2 6 0 0,0
21.01.2018 20:00:00 12,6 12,0 12,0 12,0 11,4 34 19 48 26 W 1027,0 8 0 0,0
21.01.2018 19:00:00 12,4 11,8 12,0 12,0 11,4 36 19 54 29 W 1027,1 1,3 0 0,2
21.01.2018 18:00:00 12,5 11,9 12,1 12,0 11,4 39 21 50 27 W 1026,7 4,5 0 0,0
21.01.2018 17:00:00 12,5 11,9 12,2 12,0 11,4 36 19 52 28 WNW 1026,6 4,4 0 0,0
21.01.2018 16:00:00 12,4 11,9 12,3 12,0 11,4 37 20 49 26 WNW 1026,3 2,7 0 0,0
21.01.2018 15:00:00 12,5 12,0 12,5 11,9 11,4 41 22 59 32 W 1026,2 2,3 0 0,2
21.01.2018 14:00:00 12,8 12,3 12,7 11,8 11,3 36 19 47 26 W 1026,2 5 0 0,0
21.01.2018 13:00:00 12,8 12,5 12,9 11,8 11,4 42 23 55 30 WNW 1026,3 3,6 0 0,0
21.01.2018 12:00:00 12,9 12,4 12,8 11,7 11,4 37 20 59 32 WNW 1026,2 4,9 0 0,0
21.01.2018 11:00:00 12,9 12,4 12,6 11,6 11,4 43 23 55 30 WNW 1025,6 3,1 0 0,0
21.01.2018 10:00:00 12,8 12,3 12,5 11,6 11,3 37 20 54 29 WNW 1024,9 4,4 0 0,0
21.01.2018 09:00:00 12,7 12,2 12,4 11,6 11,3 34 19 58 31 WNW 1024,4 2,4 0 0,0
21.01.2018 08:00:00 12,7 12,2 12,4 11,6 11,3 39 21 63 34 WNW 1023,8 3,3 0 0,0
21.01.2018 07:00:00 12,8 12,3 12,5 11,5 11,3 42 23 58 31 WNW 1023,4 4,1 0 0,0
21.01.2018 06:00:00 12,8 12,3 12,5 11,5 11,3 40 21 55 30 WNW 1023,2 4,0 0 0,0
21.01.2018 05:00:00 12,8 12,2 12,5 11,5 11,3 41 22 55 30 WNW 1023,1 2,9 0 0,0
21.01.2018 04:00:00 13,0 12,4 12,6 11,4 11,3 43 23 56 31 WNW 1023,0 6 0 0,0
21.01.2018 03:00:00 12,9 12,3 12,6 11,4 11,3 42 23 58 32 WNW 1022,8 3,6 0 0,0
21.01.2018 02:00:00 12,9 12,3 12,5 11,4 11,3 44 24 61 33 WNW 1022,5 4,7 0 0,0
21.01.2018 01:00:00 12,9 12,4 12,5 11,3 11,3 48 26 62 33 WNW 1022,1 5 0 0,0
21.01.2018 00:00:00 12,7 12,2 12,4 11,3 11,3 43 23 63 34 WNW 1021,7 3,0 0 0,0
20.01.2018 23:00:00 12,8 12,2 12,4 11,3 11,3 47 26 66 36 WNW 1021,4 3,2 0 0,0
20.01.2018 22:00:00 13,0 12,1 12,4 11,2 11,3 48 26 74 40 W 1021,0 6 0 0,0
20.01.2018 21:00:00 13,1 12,2 12,4 11,2 11,3 56 30 75 40 W 1020,5 7 0 0,0
20.01.2018 20:00:00 12,8 12,0 12,4 11,1 11,3 53 29 75 41 W 1020,1 3,4 0 0,0
20.01.2018 19:00:00 13,1 12,2 12,5 11,0 11,3 56 31 81 44 WNW 1019,6 6 0 0,0
20.01.2018 18:00:00 13,0 12,2 12,5 10,9 11,3 57 31 75 40 WNW 1018,9 3,0 0 0,2
20.01.2018 17:00:00 12,9 12,3 12,5 10,8 11,3 55 30 77 42 W 1018,1 2,8 0 1,8
20.01.2018 16:00:00 13,1 12,2 12,5 10,7 11,3 58 31 83 45 W 1017,5 4,1 0 0,2
20.01.2018 15:00:00 13,0 12,1 12,2 10,6 11,3 63 34 87 47 W 1017,2 6 0 0,0
20.01.2018 14:00:00 12,7 11,8 11,9 10,5 11,3 63 34 85 46 W 1017,2 4,5 0 0,6
20.01.2018 13:00:00 12,5 11,2 11,7 10,4 11,3 62 33 84 45 W 1017,6 3,3 0 0,4
20.01.2018 12:00:00 12,5 11,1 11,4 10,3 11,3 64 35 86 47 W 1018,3 6 0 0,2
20.01.2018 11:00:00 12,2 10,9 11,0 10,1 11,3 61 33 84 45 W 1018,2 6 0 1,2
20.01.2018 10:00:00 11,5 10,6 10,8 10,1 11,3 54 29 76 41 W 1018,0 2,2 0 3,6
20.01.2018 09:00:00 11,6 10,0 10,6 10,0 11,3 53 28 75 41 W 1018,4 4,7 0 0,6
20.01.2018 08:00:00 11,9 8,9 10,5 10,0 11,3 51 28 68 37 WZW 1018,5 12 0 0,0
20.01.2018 07:00:00 11,4 9,6 10,4 9,9 11,3 46 25 60 33 WZW 1019,0 8 0 0,2
20.01.2018 06:00:00 11,7 8,7 10,9 10,0 11,3 39 21 50 27 WZW 1020,0 11 0 0,0
20.01.2018 05:00:00 11,5 8,0 10,8 10,0 11,3 35 19 42 23 WZW 1021,1 14 0 0,0
20.01.2018 04:00:00 11,2 8,4 10,5 10,0 11,3 27 15 39 21 WZW 1022,4 10 0 0,0
20.01.2018 03:00:00 11,2 7,7 9,5 10,0 11,3 29 16 40 22 W 1023,1 10 0 0,0
20.01.2018 02:00:00 10,6 8,0 8,4 10,1 11,3 24 13 40 22 W 1023,8 10 0 0,2
20.01.2018 01:00:00 10,7 7,2 8,5 10,3 11,3 25 13 34 18 W 1024,1 12 0 0,0
20.01.2018 00:00:00 9,7 6,8 7,7 10,4 11,3 20 11 38 20 WNW 1024,7 13 0 0,0
19.01.2018 23:00:00 10,9 6,0 9,8 10,6 11,3 33 18 44 24 WNW 1024,7 13 0 0,0
19.01.2018 22:00:00 10,9 5,0 9,7 10,8 11,2 39 21 49 27 NW 1024,3 15 0 0,0
19.01.2018 21:00:00 10,9 4,8 9,9 10,9 11,2 36 19 46 25 NW 1023,7 18 0 0,0
19.01.2018 20:00:00 10,9 5,4 9,1 11,1 11,2 35 19 51 27 NW 1023,1 16 0 0,0
19.01.2018 19:00:00 10,8 7,5 8,7 11,2 11,2 35 19 48 26 WNW 1022,6 16 0 0,2
19.01.2018 18:00:00 10,1 7,0 8,8 11,3 11,2 42 23 53 29 NW 1022,2 18 11 0,0
19.01.2018 17:00:00 10,8 8,6 9,2 11,3 11,2 36 19 63 34 WNW 1021,5 15 11 0,6
19.01.2018 16:00:00 11,3 8,9 9,4 11,2 11,2 27 15 49 27 W 1021,0 12 18 0,2
19.01.2018 15:00:00 10,6 8,0 9,6 11,1 11,2 37 20 47 25 WNW 1021,4 6 12 0,2
19.01.2018 14:00:00 12,8 7,5 13,6 10,9 11,2 32 17 39 21 WNW 1021,2 12 19 0,0
19.01.2018 13:00:00 12,6 7,9 13,4 10,7 11,1 27 14 33 18 WNW 1021,0 11 33 0,0
19.01.2018 12:00:00 12,8 7,9 11,8 10,7 11,2 25 14 32 17 WNW 1021,4 11 18 0,0
19.01.2018 11:00:00 11,0 8,0 10,9 10,6 11,1 32 17 58 31 NW 1021,7 13 13 0,0
19.01.2018 10:00:00 11,7 8,5 10,7 10,7 11,2 24 13 38 21 WNW 1020,8 9 11 0,0
19.01.2018 09:00:00 11,5 8,4 10,9 10,7 11,1 34 18 42 23 NW 1020,3 10 0 0,0
19.01.2018 08:00:00 11,9 8,6 11,0 10,8 11,1 26 14 33 18 W 1020,2 9 0 0,0
19.01.2018 07:00:00 11,8 9,0 10,8 10,9 11,1 24 13 33 18 WNW 1020,0 8 0 0,0
19.01.2018 06:00:00 11,4 10,0 10,0 11,0 11,1 16 9 36 19 WNW 1019,5 4,4 0 0,0
19.01.2018 05:00:00 11,8 10,2 10,6 11,0 11,1 24 13 34 18 W 1019,6 7 0 0,0
19.01.2018 04:00:00 11,9 11,0 11,2 11,0 11,1 22 12 29 16 W 1020,0 5 0 0,0
19.01.2018 03:00:00 11,9 11,1 11,0 11,1 11,1 27 14 37 20 WNW 1019,8 4,7 0 0,0
19.01.2018 02:00:00 11,5 11,0 11,0 11,0 11,1 29 16 50 27 WNW 1019,9 6 0 0,8
19.01.2018 01:00:00 12,2 11,9 11,8 11,0 11,1 38 21 51 28 W 1019,9 3,2 0 0,8
19.01.2018 00:00:00 12,2 11,7 11,8 11,0 11,1 32 18 45 24 W 1020,5 4,0 0 0,0
18.01.2018 23:00:00 12,2 11,9 11,7 10,9 11,1 34 18 51 28 W 1020,6 5 0 0,2
18.01.2018 22:00:00 12,0 11,7 11,6 11,0 11,1 36 19 48 26 W 1020,6 2,0 0 0,6
18.01.2018 21:00:00 11,8 11,3 11,5 10,9 11,1 38 20 50 27 W 1020,7 3,7 0 0,2
18.01.2018 20:00:00 11,7 11,2 11,2 10,9 11,1 36 20 47 25 W 1020,8 3,1 0 0,2
18.01.2018 19:00:00 11,6 11,0 11,0 10,9 11,1 38 21 47 25 W 1020,8 5 0 0,0
18.01.2018 18:00:00 11,4 10,8 11,0 10,9 11,1 37 20 53 29 W 1020,5 6 0 0,2
18.01.2018 17:00:00 11,7 10,9 11,3 10,8 11,1 36 20 52 28 W 1020,9 7 0 0,0
18.01.2018 16:00:00 11,3 10,5 11,2 10,7 11,1 39 21 54 29 W 1020,9 3,6 0 0,2
18.01.2018 15:00:00 11,6 10,8 11,6 10,5 11,1 36 19 50 27 W 1021,1 4,1 0 0,0
18.01.2018 14:00:00 11,4 10,6 11,5 10,3 11,1 35 19 56 30 WZW 1021,7 3,9 0 0,2
18.01.2018 13:00:00 11,6 10,3 11,6 10,1 11,1 36 19 50 27 WZW 1022,4 6 7 0,0
18.01.2018 12:00:00 11,1 10,2 10,9 10,0 11,1 35 19 50 27 WZW 1023,3 4,3 0 0,2

tt = temperatuur
td = dauwpunt
tt 5cm = temperatuur 5cm
tt -20cm = temperatuur -20cm
tt -100cm = temperatuur -100cm
ff = windsnelheid
fx = windstoten
dd = windrichting
ppp = luchtdruk
vv = zicht
sd = Zonneschijnduur
rr = neerslag

Weerstations in de omgeving